Regional Weather Roundup
Issued by NWS

Home | Current Version | Previous Version | Graphics & Text | Print | Product List | Glossary On
Versions: 1 2 3 4 5 6 7 8 9 10 11 12 13 14 15 16 17 18 19 20 21 22 23 24 25 26 27 28 29 30 31 32 33 34 35 36 37 38 39 40 41 42 43 44 45 46 47 48 49 50
000
ASUS43 KDMX 231206
RWRIA

WEATHER ROUNDUP FOR IOWA
NATIONAL WEATHER SERVICE DES MOINES IA
700 AM CDT MON APR 23 2018

NOTE: "FAIR" INDICATES FEW OR NO CLOUDS BELOW 12,000 FEET WITH NO
SIGNIFICANT WEATHER AND/OR OBSTRUCTIONS TO VISIBILITY.

* - THESE STATIONS ARE NOT NWS STATIONS...THUS NOT UNDER NWS
QUALITY CONTROL.  THEY ALSO DO NOT REPORT WEATHER SUCH
AS PRECIPITATION OR FOG.

IAZ001>003-012>014-020>022-031>034-043>046-231300-
   NORTHWEST IOWA

CITY           SKY/WX    TMP DP  RH WIND       PRES   REMARKS
CARROLL *      CLOUDY    36  32  87 NW5       30.22R WCI  32
CHEROKEE *     CLEAR     34  34 100 NE3       30.22R FOG
DENISON *      PTCLDY    36  30  80 NE5       30.23R WCI  32
LE MARS *      CLEAR     34  34 100 CALM      30.21S FOG
ORANGE CITY *  CLEAR     41  37  87 E6        30.21S
SHELDON *      CLEAR     36  36 100 E5        30.20S WCI  32
SIOUX CITY     CLEAR     35  34  96 NW5       30.20S WCI  31
6HR MIN TEMP:  32; 6HR MAX TEMP:  44;

SPENCER        CLEAR     34  32  92 E3        30.22S
6HR MIN TEMP:  32; 6HR MAX TEMP:  41;

STORM LAKE *   CLOUDY    39  36  87 E3        30.21S
$$

IAZ055>058-069>071-079>083-090>094-231300-
   SOUTHWEST IOWA

CITY           SKY/WX    TMP DP  RH WIND       PRES   REMARKS
ATLANTIC *     CLEAR     34  30  86 N6        30.19R WCI  29
AUDUBON *      CLEAR     34  30  86 CALM      30.21R
CLARINDA *     MOCLDY    41  30  65 N6        30.19R
COUNCIL BLFS * CLEAR     41  28  60 N8        30.18R
CRESTON *      CLOUDY    43  30  61 NE12      30.19R
HARLAN  *      CLEAR     37  32  81 N6        30.23R WCI  33
LAMONI         CLOUDY    49  31  49 NE8       30.16R
6HR MIN TEMP:  49; 6HR MAX TEMP:  54;

RED OAK *      CLEAR     39  28  65 MISG      30.18R
SHENANDOAH *   CLEAR     37  30  75 CALM      30.18R
$$

IAZ047>049-059>061-072>074-084-231300-
   CENTRAL IOWA

CITY           SKY/WX    TMP DP  RH WIND       PRES   REMARKS
AMES           CLOUDY    42  32  67 NE5       30.21R
6HR MIN TEMP:  42; 6HR MAX TEMP:  50;

ANKENY *       CLOUDY    43  32  65 N6        30.22R
BOONE *        CLOUDY    43  34  70 NE8       30.21R
CHARITON *     CLOUDY    46  32  57 NE9       30.17S
DES MOINES     CLOUDY    48  31  51 NE6       30.20R
6HR MIN TEMP:  48; 6HR MAX TEMP:  55;

GRINNELL*      CLOUDY    46  31  56 NE10      30.22R
KNOXVILLE *    CLOUDY    48  28  46 NE9       30.18R
MARSHALLTOWN   CLEAR     39  32  76 NE7       30.21R WCI  34
6HR MIN TEMP:  38; 6HR MAX TEMP:  50;

NEWTON *       CLOUDY    46  30  53 NE6       30.21R
PELLA *        CLOUDY    49  29  46 NE5       30.21R
PERRY *        FAIR      40  31  70 N6        30.21R
$$

IAZ004>006-015-016-023>025-035-036-231300-
   NORTH CENTRAL IOWA

CITY           SKY/WX    TMP DP  RH WIND       PRES   REMARKS
ALGONA *       CLEAR     36  34  93 E5        30.23S WCI  32
CLARION *      PTCLDY    39  34  81 E7        30.23R WCI  34
ESTHERVILLE    CLEAR     32  32 100 CALM      30.23R
6HR MIN TEMP:  32; 6HR MAX TEMP:  36;

FORT DODGE *   CLEAR     41  37  86 CALM      30.23R
MASON CITY     CLEAR     36  31  82 NE6       30.26R WCI  31
6HR MIN TEMP:  32; 6HR MAX TEMP:  40;

FOREST CITY *  FAIR      36  34  93 CALM      30.24S
WEBSTER CITY * CLEAR     39  34  81 NE3       30.21R
IOWA FALLS *   FAIR      41  34  74 NE7       30.24R
$$

IAZ007>011-017>019-026>030-037>042-050>054-066-231300-
   NORTHEAST IOWA

CITY           SKY/WX    TMP DP  RH WIND       PRES   REMARKS
CEDAR RAPIDS   FAIR      48  29  47 NE10      30.21R
6HR MIN TEMP:  44; 6HR MAX TEMP:  50;

CHARLES CITY * MOCLDY    39  32  75 NE8       30.25R WCI  34
CLINTON *        N/A     40  29  64 NE10      30.22R WCI  33
DECORAH *      FAIR      39  30  70 NE5       30.25R
DUBUQUE        FAIR      41  28  60 NE9       30.24R
6HR MIN TEMP:  40; 6HR MAX TEMP:  47;

MONTICELLO *   FAIR      45  30  57 NE6       30.23R
OELWEIN *      FAIR      41  32  70 E8        30.24R
WATERLOO       FAIR      39  32  76 NE5       30.23R
6HR MIN TEMP:  35; 6HR MAX TEMP:  42;

$$

IAZ064-065-067-068-078-231300-
   EAST CENTRAL IOWA

CITY           SKY/WX    TMP DP  RH WIND       PRES   REMARKS
DAVENPORT      FAIR      40  29  64 NE8       30.22R WCI  34
6HR MIN TEMP:  38; 6HR MAX TEMP:  47;

IOWA CITY      FAIR      48  28  46 NE9       30.22R
6HR MIN TEMP:  48; 6HR MAX TEMP:  52;

MT. PLEASANT * CLOUDY    45  30  57 NE9       30.17S
MUSCATINE *    FAIR      43  30  61 NE7       30.20S
QUAD CITIES    FAIR      46  28  49 NE8       30.19S
6HR MIN TEMP:  41; 6HR MAX TEMP:  47;

$$

IAZ062-063-075>077-085>089-095>099-231300-
   SOUTHEAST IOWA

CITY           SKY/WX    TMP DP  RH WIND       PRES   REMARKS
BURLINGTON     CLOUDY    47  29  49 NE16      30.15R
6HR MIN TEMP:  46; 6HR MAX TEMP:  52;

FAIRFIELD *    CLOUDY    46  28  49 NE13      30.17S
FORT MADISON * CLOUDY    46  30  53 NE9       30.15R
KEOKUK *       CLOUDY    48  30  49 NE8       30.13R
OSKALOOSA *    FAIR      47  29  50 NE12      30.19R
CENTERVILLE *    N/A     48  32  53 CALM      30.17S
OTTUMWA        CLOUDY    48  29  47 NE10      30.18R
6HR MIN TEMP:  48; 6HR MAX TEMP:  51;

WASHINGTON *   CLOUDY    46  30  53 NE10      30.20R
$$

ABBREVIATIONS USED IN REMARKS
   TC - TEMPERATURES IN CELSIUS
  WCI - WIND CHILL INDEX
   HX - HEAT INDEX
  VSB - VISIBILITY
$$





USA.gov is the U.S. government's official web portal to all federal, state and local government web resources and services.